{"data":{"norad_id":67743,"epoch":"2026-09-19T09:14:30.413472Z","epoch_age_seconds":162768,"freshness":"FRESH","line1":"1 67743U 26026Y   26262.38507423  .00010376  00000+0  32324-3 0  9996","line2":"2 67743  97.2837 314.2925 0000889 114.7780 245.3555 15.33448743 33810","mean_motion":15.33448743,"eccentricity":8.89e-5,"inclination_deg":97.2837,"raan_deg":314.2925,"arg_perigee_deg":114.778,"mean_anomaly_deg":245.3555,"bstar":0.00032324,"rev_number":3381,"period_min":93.905975440876,"perigee_km":464.92363578873,"apogee_km":466.14044014368,"semimajor_km":6843.6690379662,"source":"CELESTRAK","updated_at":"2026-09-20T09:00:43.661012Z"}}